CZ-6A DEB, 60790

Orbit data source: Space-Track

CZ-6A DEB, 60790 is space debris in LEO originally from a launch on Tue, 06 Aug 2024 UTC launched from the Taiyaun Space Center, China (TSC). Debris objects in space refer to the collection of defunct objects orbiting the Earth. Examples of debris include non-operational satellites, rocket bodies, and fragments generated from explosions, collisions, or faulty payload assembly.

Loading next visibility...
Identifier
60790, 2024-140FR
Orbit
LEO
Country
Flag of CNCN / PRC
Related business
Manufacturer
SAST
Mission
Spacecraft
Bus & Motor
Unknown
Mass
Unknown
Launch date (UTC)
2024-08-06 (2 years ago)
Launch vehicle
Unknown
Launch site
Taiyaun Space Center, China (TSC)
Object type
Payload
Rocket body
Debris
Shape & HBR
Unknown shape, 0.4 m
Radar Cross Section
Medium (>0.1 m² and <1 m²)

Expand to show TLE details & history
Last TLE update: 9 hours ago

TLE from 9 hours ago
0 CZ-6A DEB
1 60790U 24140FR  26130.15666179  .00000331  00000-0  87797-4 0  9995
2 60790  88.8371 263.3546 0078708  74.0230 286.9626 14.44354848 91783
Epoch: 2026-05-10T03:45Z
TLE epoch observation values (Epoch: 2026-05-10T03:45:35.578Z)
Latitude
-0.00007°
Longitude
-21.00743°
Altitude
731.28 km
Speed
7.498 km/s
True Right ascension
17h 33m 25s
True Declination
0° 00' 00"
Sunlit
Object was in full shadow at epoch
Visualization orbit readout
Latitude
Unknown
Longitude
Unknown
Altitude
Unknown
Speed
Unknown
Apparent Right ascension
Unknown
Apparent Declination
Unknown
Sunlit
N/A
Visualization observer readout
Local Sidereal Time
20:41:32
Azimuth
Unknown
Elevation
Unknown
Doppler factor
Unknown
Orbital elements
Apogee altitude
797.097 km
Perigee altitude
685.03 km
Semi-major axis
7,119.2 km
Eccentricity
0.00787
Inclination
88.8371°
RAAN
263.3546°
Arg. of periapsis
74.023°
True anomaly
286.09746°
Mean anomaly
286.9626°
Eccentric anomaly
286.53027°
Mean motion
3.61324 °/min
Orbital period
99.63 mins
BSTAR
0.000087797
Loading maneuver chart data...
Computing Atmospheric mass density...
Loading historical data...
Loading historical data...
Loading historical data...
Loading historical data...
Loading historical data...
Loading historical data...
Loading historical data...

Documentation

Showing up to 5 results
|